| time (UTC) | temp F | wind direction | speed knots | gust knots | rain 1hr in | rain 24hr in | rain mn in | humidity % | barometer mb |
| 20260504020819 | 62 | 341 | 1.7 | 4.3 | 0.00 | 0.46 | 0.00 | 86 | 1009.0 |
| 20260504020309 | 62 | 338 | 1.7 | 3.5 | 0.00 | 0.46 | 0.00 | 87 | 1009.1 |
| 20260504014747 | 62 | 343 | 1.7 | 3.5 | 0.00 | 0.46 | 0.00 | 87 | 1009.3 |
| 20260504013735 | 61 | 347 | 0.9 | 2.6 | 0.00 | 0.47 | 0.00 | 89 | 1009.4 |
| 20260504013225 | 61 | 353 | 0.9 | 2.6 | 0.00 | 0.47 | 0.00 | 89 | 1009.4 |
| 20260504012719 | 61 | 343 | 1.7 | 3.5 | 0.00 | 0.47 | 0.00 | 89 | 1009.4 |
| 20260504011703 | 60 | 354 | 1.7 | 3.5 | 0.00 | 0.47 | 0.00 | 92 | 1009.5 |
| 20260504011157 | 60 | 349 | 1.7 | 3.5 | 0.00 | 0.47 | 0.00 | 93 | 1009.6 |
| 20260504010651 | 60 | 343 | 1.7 | 3.5 | 0.00 | 0.48 | 0.00 | 94 | 1009.7 |
| 20260504010141 | 60 | 348 | 1.7 | 3.5 | 0.00 | 0.48 | 0.00 | 96 | 1009.8 |
| 20260504005635 | 59 | 19 | 1.7 | 3.5 | 0.00 | 0.49 | 0.00 | 97 | 1009.9 |
| 20260504005130 | 59 | 324 | 1.7 | 3.5 | 0.00 | 0.49 | 0.00 | 97 | 1009.8 |
| 20260504004620 | 58 | 354 | 0.9 | 3.5 | 0.00 | 0.49 | 0.00 | 98 | 1009.8 |
| 20260504004113 | 58 | 353 | 0.9 | 2.6 | 0.00 | 0.50 | 0.00 | 98 | 1009.8 |
| 20260504003607 | 58 | 331 | 0.9 | 2.6 | 0.00 | 0.50 | 0.00 | 99 | 1009.8 |
| 20260504003057 | 58 | 343 | 0.9 | 3.5 | 0.00 | 0.50 | 0.00 | 99 | 1009.8 |
| 20260504002552 | 58 | 334 | 0.9 | 3.5 | 0.00 | 0.50 | 0.00 | 99 | 1009.7 |
| 20260504002045 | 58 | 339 | 1.7 | 3.5 | 0.00 | 0.52 | 0.00 | 99 | 1009.8 |
| 20260504001029 | 58 | 327 | 0.9 | 2.6 | 0.00 | 0.54 | 0.00 | 99 | 1009.8 |
| 20260504000523 | 57 | 342 | 0.9 | 2.6 | 0.00 | 0.54 | 0.00 | 99 | 1009.9 |
| 20260504000012 | 57 | 3 | 0.9 | 2.6 | 0.00 | 0.55 | 0.00 | 99 | 1009.9 |
| 20260503235505 | 57 | 336 | 0.9 | 2.6 | 0.00 | 0.56 | 0.00 | 99 | 1009.9 |
| 20260503234450 | 56 | 353 | 0.0 | 1.7 | 0.00 | 0.58 | 0.00 | 99 | 1009.9 |
| 20260503233944 | 55 | 159 | 0.0 | 1.7 | 0.00 | 0.60 | 0.00 | 99 | 1010.0 |
| 20260503232932 | 55 | 159 | 0.0 | 1.7 | 0.00 | 0.63 | 0.00 | 99 | 1010.0 |
| 20260503232417 | 55 | 159 | 0.0 | 1.7 | 0.00 | 0.65 | 0.00 | 99 | 1010.0 |
| 20260503231911 | 55 | 211 | 0.0 | 1.7 | 0.00 | 0.66 | 0.00 | 99 | 1010.0 |
| 20260503231401 | 55 | 211 | 0.0 | 1.7 | 0.00 | 0.67 | 0.00 | 99 | 1010.0 |
| 20260503230856 | 54 | 192 | 0.0 | 1.7 | 0.00 | 0.68 | 0.00 | 99 | 1009.9 |
| 20260503230349 | 54 | 192 | 0.0 | 1.7 | 0.00 | 0.69 | 0.00 | 99 | 1009.9 |
| 20260503225839 | 54 | 192 | 0.0 | 1.7 | 0.00 | 0.72 | 0.00 | 99 | 1009.9 |
| 20260503224827 | 53 | 271 | 0.0 | 1.7 | 0.00 | 0.72 | 0.00 | 99 | 1009.9 |
| 20260503224317 | 53 | 225 | 0.0 | 1.7 | 0.00 | 0.74 | 0.00 | 99 | 1009.9 |
| 20260503223305 | 53 | 241 | 0.9 | 1.7 | 0.00 | 0.78 | 0.00 | 99 | 1009.8 |
| 20260503222755 | 53 | 161 | 0.0 | 1.7 | 0.00 | 0.80 | 0.00 | 99 | 1009.8 |
| 20260503222249 | 53 | 180 | 0.0 | 1.7 | 0.00 | 0.80 | 0.00 | 99 | 1009.8 |
| 20260503221743 | 53 | 180 | 0.9 | 1.7 | 0.00 | 0.80 | 0.00 | 99 | 1009.7 |
| 20260503221233 | 53 | 212 | 0.0 | 1.7 | 0.00 | 0.80 | 0.00 | 99 | 1009.9 |
| 20260503220728 | 52 | 144 | 0.0 | 1.7 | 0.00 | 0.80 | 0.00 | 99 | 1010.0 |
| 20260503220222 | 52 | 144 | 0.0 | 1.7 | 0.00 | 0.80 | 0.00 | 99 | 1009.9 |
| 20260503215711 | 52 | 144 | 0.0 | 1.7 | 0.00 | 0.81 | 0.00 | 99 | 1010.0 |
| 20260503215205 | 52 | 180 | 0.9 | 1.7 | 0.00 | 0.81 | 0.00 | 99 | 1009.9 |
| 20260503214150 | 52 | 178 | 0.0 | 1.7 | 0.00 | 0.81 | 0.00 | 98 | 1009.8 |
| 20260503213644 | 52 | 172 | 0.0 | 1.7 | 0.00 | 0.81 | 0.00 | 98 | 1009.7 |
| 20260503213137 | 52 | 160 | 0.0 | 1.7 | 0.00 | 0.81 | 0.00 | 98 | 1009.7 |
| 20260503212627 | 52 | 160 | 0.0 | 1.7 | 0.00 | 0.81 | 0.00 | 98 | 1009.5 |
| 20260503212122 | 52 | 161 | 0.0 | 0.0 | 0.00 | 0.81 | 0.00 | 98 | 1009.6 |
| 20260503211615 | 52 | 182 | 0.0 | 1.7 | 0.00 | 0.81 | 0.00 | 98 | 1009.5 |
| 20260503211105 | 52 | 182 | 0.0 | 1.7 | 0.00 | 0.81 | 0.00 | 98 | 1009.6 |
| 20260503210559 | 52 | 182 | 0.0 | 1.7 | 0.00 | 0.81 | 0.00 | 98 | 1009.6 |
| 20260503210053 | 52 | 182 | 0.9 | 1.7 | 0.00 | 0.81 | 0.00 | 98 | 1009.5 |
| 20260503205038 | 52 | 182 | 0.0 | 1.7 | 0.00 | 0.81 | 0.00 | 98 | 1009.5 |
| 20260503204531 | 52 | 187 | 0.0 | 0.9 | 0.00 | 0.82 | 0.00 | 98 | 1009.5 |
| 20260503204021 | 52 | 189 | 0.9 | 1.7 | 0.00 | 0.82 | 0.00 | 98 | 1009.4 |
| 20260503203515 | 52 | 180 | 0.9 | 1.7 | 0.00 | 0.82 | 0.00 | 98 | 1009.4 |
| 20260503203009 | 52 | 182 | 0.9 | 1.7 | 0.00 | 0.82 | 0.00 | 98 | 1009.4 |
| 20260503202459 | 52 | 182 | 0.0 | 1.7 | 0.00 | 0.82 | 0.00 | 98 | 1009.4 |
| 20260503201448 | 52 | 182 | 0.0 | 0.9 | 0.00 | 0.82 | 0.00 | 98 | 1009.6 |
| 20260503200431 | 53 | 182 | 0.0 | 0.9 | 0.00 | 0.83 | 0.00 | 98 | 1009.6 |
| 20260503195925 | 53 | 182 | 0.0 | 1.7 | 0.00 | 0.83 | 0.00 | 98 | 1009.6 |
| 20260503195415 | 53 | 182 | 0.0 | 1.7 | 0.00 | 0.83 | 0.00 | 98 | 1009.5 |
| 20260503194909 | 53 | 182 | 0.0 | 1.7 | 0.00 | 0.83 | 0.00 | 98 | 1009.5 |
| 20260503194403 | 53 | 182 | 0.0 | 1.7 | 0.00 | 0.83 | 0.00 | 98 | 1009.4 |
| 20260503193348 | 53 | 181 | 0.0 | 1.7 | 0.00 | 0.83 | 0.00 | 98 | 1009.4 |
| 20260503192841 | 53 | 181 | 0.0 | 1.7 | 0.00 | 0.83 | 0.00 | 98 | 1009.4 |
| 20260503192331 | 53 | 205 | 0.0 | 1.7 | 0.00 | 0.83 | 0.00 | 98 | 1009.3 |
| 20260503191825 | 53 | 189 | 0.0 | 1.7 | 0.00 | 0.83 | 0.00 | 98 | 1009.2 |
| 20260503191319 | 53 | 189 | 0.0 | 1.7 | 0.00 | 0.83 | 0.00 | 98 | 1009.2 |
| 20260503190811 | 53 | 153 | 0.9 | 3.5 | 0.00 | 0.83 | 0.00 | 98 | 1009.2 |
| 20260503185757 | 53 | 180 | 0.9 | 3.5 | 0.00 | 0.83 | 0.00 | 98 | 1009.2 |
| 20260503185247 | 54 | 180 | 0.9 | 2.6 | 0.00 | 0.83 | 0.00 | 99 | 1009.2 |
| 20260503184741 | 54 | 183 | 0.0 | 2.6 | 0.00 | 0.83 | 0.00 | 99 | 1009.2 |
| 20260503184235 | 54 | 170 | 0.9 | 2.6 | 0.00 | 0.83 | 0.00 | 99 | 1009.2 |
| 20260503183725 | 54 | 170 | 0.9 | 2.6 | 0.00 | 0.83 | 0.00 | 99 | 1009.2 |
| 20260503182713 | 54 | 163 | 0.0 | 2.6 | 0.00 | 0.83 | 0.00 | 99 | 1009.1 |
| 20260503182204 | 53 | 180 | 0.9 | 2.6 | 0.00 | 0.83 | 0.00 | 99 | 1009.3 |
| 20260503181658 | 53 | 207 | 0.9 | 2.6 | 0.00 | 0.83 | 0.00 | 99 | 1009.4 |
| 20260503181151 | 53 | 272 | 0.0 | 1.7 | 0.00 | 0.83 | 0.00 | 99 | 1009.3 |
| 20260503180641 | 53 | 161 | 0.0 | 2.6 | 0.00 | 0.83 | 0.00 | 99 | 1009.1 |
| 20260503175630 | 53 | 180 | 0.0 | 2.6 | 0.00 | 0.83 | 0.00 | 99 | 1009.2 |
| 20260503174613 | 53 | 180 | 0.0 | 0.0 | 0.00 | 0.83 | 0.00 | 99 | 1009.2 |
| 20260503174107 | 53 | 182 | 0.0 | 0.0 | 0.00 | 0.83 | 0.00 | 99 | 1009.4 |
| 20260503173557 | 53 | 192 | 0.0 | 0.0 | 0.00 | 0.83 | 0.00 | 99 | 1009.7 |
| 20260503173051 | 53 | 218 | 0.0 | 0.0 | 0.00 | 0.83 | 0.00 | 99 | 1009.7 |
| 20260503172546 | 53 | 218 | 0.0 | 0.0 | 0.00 | 0.83 | 0.00 | 99 | 1009.7 |
| 20260503172035 | 53 | 218 | 0.0 | 0.0 | 0.00 | 0.83 | 0.00 | 98 | 1009.8 |
| 20260503171529 | 52 | 218 | 0.0 | 0.0 | 0.00 | 0.83 | 0.00 | 99 | 1009.6 |
| 20260503171023 | 52 | 218 | 0.0 | 0.0 | 0.00 | 0.83 | 0.00 | 98 | 1009.7 |
| 20260503170526 | 52 | 218 | 0.0 | 0.0 | 0.00 | 0.83 | 0.00 | 98 | 1009.9 |
| 20260503150727 | 53 | 83 | 0.0 | 0.0 | 0.00 | 0.83 | 0.00 | 98 | 1010.3 |
| 20260503150217 | 53 | 83 | 0.0 | 0.0 | 0.00 | 0.83 | 0.00 | 98 | 1010.1 |
| 20260503140206 | 54 | 83 | 0.0 | 0.0 | 0.00 | 0.83 | 0.00 | 98 | 1009.5 |
| 20260503131145 | 56 | 83 | 0.0 | 0.0 | 0.00 | 0.83 | 0.83 | 98 | 1010.1 |
| 20260503130644 | 56 | 83 | 0.0 | 0.0 | 0.00 | 0.83 | 0.83 | 98 | 1010.3 |
| 20260503130142 | 56 | 83 | 0.0 | 0.0 | 0.00 | 0.83 | 0.83 | 98 | 1010.4 |
| 20260503120112 | 58 | 66 | 0.0 | 0.0 | 0.00 | 0.83 | 0.83 | 98 | 1010.0 |
| 20260503081402 | 61 | 38 | 0.0 | 0.0 | 0.03 | 0.82 | 0.82 | 98 | 1009.6 |
| 20260503080851 | 61 | 37 | 0.0 | 0.0 | 0.02 | 0.81 | 0.82 | 98 | 1009.5 |
| 20260503080345 | 61 | 69 | 0.0 | 0.0 | 0.02 | 0.81 | 0.81 | 98 | 1009.5 |
| 20260503072755 | 61 | 75 | 0.9 | 2.6 | 0.03 | 0.80 | 0.80 | 98 | 1009.3 |
| 20260503072245 | 61 | 73 | 0.0 | 2.6 | 0.04 | 0.80 | 0.80 | 98 | 1009.2 |
| 20260503071234 | 61 | 39 | 0.0 | 2.6 | 0.04 | 0.79 | 0.79 | 98 | 1009.5 |
| 20260503070723 | 61 | 39 | 0.0 | 2.6 | 0.04 | 0.79 | 0.79 | 98 | 1009.4 |
| 20260503070217 | 61 | 83 | 0.0 | 2.6 | 0.04 | 0.79 | 0.79 | 98 | 1009.4 |
| 20260503055034 | 62 | 9 | 0.0 | 1.7 | 0.09 | 0.74 | 0.74 | 98 | 1010.0 |
| 20260503054527 | 62 | 56 | 0.0 | 1.7 | 0.09 | 0.73 | 0.73 | 98 | 1010.0 |
| 20260503054021 | 61 | 78 | 0.9 | 2.6 | 0.10 | 0.73 | 0.73 | 98 | 1010.1 |
| 20260503053512 | 61 | 86 | 0.9 | 2.6 | 0.11 | 0.72 | 0.72 | 98 | 1010.2 |
| 20260503053005 | 61 | 65 | 0.0 | 2.6 | 0.13 | 0.72 | 0.72 | 98 | 1010.1 |
| 20260503052459 | 61 | 124 | 0.0 | 0.0 | 0.15 | 0.72 | 0.72 | 98 | 1010.2 |
| 20260503051949 | 61 | 105 | 0.0 | 0.0 | 0.16 | 0.71 | 0.71 | 98 | 1010.3 |
| 20260503050938 | 61 | 82 | 0.0 | 0.9 | 0.20 | 0.69 | 0.69 | 98 | 1010.5 |
| 20260503045922 | 62 | 353 | 0.0 | 2.6 | 0.23 | 0.68 | 0.68 | 98 | 1010.4 |
| 20260503045415 | 62 | 79 | 0.0 | 2.6 | 0.24 | 0.66 | 0.66 | 98 | 1010.4 |
| 20260503044359 | 62 | 64 | 0.0 | 2.6 | 0.24 | 0.64 | 0.64 | 98 | 1010.6 |
| 20260503043854 | 62 | 87 | 0.9 | 2.6 | 0.24 | 0.62 | 0.62 | 98 | 1010.6 |
| 20260503043344 | 62 | 10 | 0.9 | 2.6 | 0.22 | 0.61 | 0.61 | 98 | 1010.6 |
| 20260503042837 | 61 | 15 | 0.0 | 2.6 | 0.21 | 0.59 | 0.59 | 98 | 1010.8 |
| 20260503041822 | 61 | 33 | 0.0 | 2.6 | 0.17 | 0.54 | 0.54 | 98 | 1011.1 |
| 20260503041315 | 60 | 75 | 0.0 | 2.6 | 0.14 | 0.51 | 0.52 | 98 | 1010.9 |
| 20260503040259 | 60 | 333 | 0.0 | 0.0 | 0.09 | 0.46 | 0.46 | 98 | 1011.2 |
| 20260503035753 | 60 | 333 | 0.0 | 0.0 | 0.07 | 0.44 | 0.44 | 98 | 1011.0 |
| 20260503035248 | 60 | 332 | 0.0 | 0.0 | 0.05 | 0.42 | 0.42 | 98 | 1010.8 |
| 20260503034740 | 60 | 333 | 0.0 | 0.0 | 0.03 | 0.40 | 0.40 | 98 | 1010.6 |
| 20260503034232 | 60 | 357 | 0.0 | 2.6 | 0.02 | 0.39 | 0.39 | 98 | 1010.6 |
| 20260503033725 | 60 | 57 | 0.0 | 2.6 | 0.02 | 0.39 | 0.39 | 98 | 1010.1 |
| 20260503032709 | 60 | 121 | 0.9 | 2.6 | 0.01 | 0.38 | 0.38 | 98 | 1010.1 |
| 20260503032203 | 60 | 69 | 0.0 | 2.6 | 0.00 | 0.37 | 0.37 | 98 | 1010.0 |
| 20260503031654 | 60 | 28 | 0.0 | 2.6 | 0.00 | 0.37 | 0.37 | 98 | 1009.9 |
| 20260503030641 | 60 | 79 | 0.0 | 1.7 | 0.00 | 0.37 | 0.37 | 98 | 1010.1 |
| 20260503030132 | 60 | 128 | 0.0 | 1.7 | 0.00 | 0.37 | 0.37 | 98 | 1010.1 |
| 20260503025626 | 60 | 7 | 0.0 | 1.7 | 0.00 | 0.37 | 0.37 | 98 | 1010.3 |
| 20260503025119 | 60 | 86 | 0.0 | 1.7 | 0.00 | 0.37 | 0.37 | 98 | 1010.4 |
| 20260503024112 | 60 | 103 | 0.0 | 1.7 | 0.00 | 0.37 | 0.37 | 98 | 1010.8 |
| 20260503023612 | 60 | 104 | 0.0 | 2.6 | 0.01 | 0.37 | 0.37 | 98 | 1010.8 |
| 20260503023113 | 60 | 153 | 0.0 | 2.6 | 0.01 | 0.37 | 0.37 | 98 | 1010.9 |
| 20260503022612 | 60 | 62 | 0.0 | 2.6 | 0.01 | 0.37 | 0.37 | 98 | 1010.8 |
| 20260503022113 | 60 | 132 | 0.9 | 2.6 | 0.01 | 0.37 | 0.37 | 98 | 1011.1 |
| 20260503021612 | 60 | 137 | 0.9 | 2.6 | 0.01 | 0.37 | 0.37 | 98 | 1011.2 |
| 20260503021112 | 59 | 130 | 0.9 | 2.6 | 0.01 | 0.37 | 0.37 | 98 | 1011.3 |